Weather History for Lewiston, ID

Change the Weather History Date:

Saturday, November 13, 2010

  Actual Average Record
Temperature  
Mean Temperature 36 °F 42 °F  
Max Temperature 41 °F 49 °F 74 °F (1999)
Min Temperature 31 °F 35 °F 8 °F (1959)
Degree Days  
Heating Degree Days 29 23  
Month to date heating degree days 248 273  
Since 1 July heating degree days 665 798  
Cooling Degree Days 0 0  
Month to date cooling degree days 0 0  
Year to date cooling degree days 713 807  
Moisture  
Dew Point 33 °F    
Average Humidity 90    
Maximum Humidity 100    
Minimum Humidity 79    
Precipitation  
Precipitation 0.00 in 0.04 in 1.10 in (1906)
Month to date precipitation 0.44 0.53  
Year to date precipitation 12.10 10.69  
Snow  
Snow 0.00 in 0.00 in 2.40 in (1955)
Month to date snowfall 0.0 0.4  
Since 1 July snowfall 0.0 0.4  
Since 1 September snowfall 0.0 0.4  
Snow Depth 0.00 in    
Sea Level Pressure  
Sea Level Pressure 30.47 in    
Wind  
Wind Speed 1 mph (ENE)    
Max Wind Speed 10 mph    
Max Gust Speed 13 mph    
Visibility 8 miles    
Events      
T = Trace of Precipitation, MM = Missing Value Source: NWS Daily Summary

Daily Weather History Graph

Daily Weather History Graph

Search for Another Location

Airport:

Trip Planner

Search our weather history database for the weather conditions in past years. The results will help you decide how hot, cold, wet, or windy it might be!

Date:

Astronomy

Nov. 13, 2010 Rise Set
Actual Time 6:46 AM PST 4:17 PM PST
Civil Twilight 6:14 AM PST 4:49 PM PST
Nautical Twilight 5:37 AM PST 5:26 PM PST
Astronomical Twilight 5:02 AM PST 6:01 PM PST
Moon 12:37 PM PST (11/13) 11:38 PM PST (11/13)
Length of Visible Light 10h 35m
Length of Day
9h 30m
First Quarter, 51% of the Moon is Illuminated
Nov 13
First Quarter
Nov 21
Full
Nov 28
Last Quarter
Dec 5
New
Dec 13
First Quarter

Hourly Weather History & Observations

Time (PST) Temp. Windchill Dew Point Humidity Pressure Visibility Wind Dir Wind Speed Gust Speed Precip Events Conditions
12:56 AM 32.0 °F 28.7 °F 28.0 °F 85% 30.63 in 10.0 mi SSE 3.5 mph - N/A   Clear
1:56 AM 33.1 °F - 28.0 °F 82% 30.63 in 10.0 mi Calm Calm - N/A   Clear
2:56 AM 34.0 °F - 28.9 °F 82% 30.61 in 10.0 mi Calm Calm - N/A   Clear
3:56 AM 32.0 °F - 28.9 °F 88% 30.61 in 10.0 mi Calm Calm - N/A   Clear
4:56 AM 30.9 °F 27.5 °F 28.9 °F 92% 30.60 in 10.0 mi SE 3.5 mph - N/A   Clear
5:56 AM 32.0 °F - 30.0 °F 92% 30.59 in 10.0 mi Calm Calm - N/A   Clear
6:56 AM 33.1 °F 30.0 °F 30.9 °F 92% 30.57 in 10.0 mi ENE 3.5 mph - N/A   Overcast
7:56 AM 32.0 °F - 30.9 °F 96% 30.56 in 7.0 mi Calm Calm - N/A   Mostly Cloudy
8:47 AM 33.8 °F - 32.0 °F 93% 30.50 in 2.5 mi Calm Calm - N/A   Overcast
8:56 AM 34.0 °F - 33.1 °F 96% 30.54 in 6.0 mi Calm Calm - N/A   Overcast
9:22 AM 33.8 °F - 33.8 °F 100% 30.48 in 2.5 mi Calm Calm - N/A   Mostly Cloudy
9:32 AM 33.8 °F - 33.8 °F 100% 30.48 in 1.5 mi Calm Calm - N/A   Overcast
9:48 AM 33.8 °F - 33.8 °F 100% 30.48 in 2.0 mi Calm Calm - N/A   Overcast
9:56 AM 35.1 °F - 33.1 °F 92% 30.52 in 2.5 mi Calm Calm - N/A   Overcast
9:59 AM 35.6 °F - 33.8 °F 93% 30.48 in 3.0 mi Calm Calm - N/A   Overcast
10:56 AM 37.0 °F - 34.0 °F 89% 30.51 in 5.0 mi Calm Calm - N/A   Overcast
11:56 AM 39.0 °F 35.7 °F 35.1 °F 86% 30.48 in 10.0 mi ENE 4.6 mph - N/A   Overcast
12:42 PM 41.0 °F 36.4 °F 35.6 °F 81% 30.40 in 10.0 mi ENE 6.9 mph - N/A   Overcast
12:56 PM 41.0 °F 36.4 °F 35.1 °F 79% 30.44 in 10.0 mi NE 6.9 mph - N/A   Overcast
1:49 PM 41.0 °F 37.1 °F 35.6 °F 81% 30.40 in 10.0 mi North 5.8 mph - N/A   Overcast
1:56 PM 41.0 °F 38.0 °F 35.1 °F 79% 30.43 in 10.0 mi North 4.6 mph - N/A   Overcast
2:48 PM 39.2 °F - 35.6 °F 87% 30.38 in 6.0 mi Calm Calm - N/A   Haze
2:56 PM 39.9 °F - 35.1 °F 83% 30.42 in 6.0 mi Calm Calm - N/A   Haze
3:56 PM 39.9 °F - 35.1 °F 83% 30.43 in 7.0 mi Calm Calm - N/A   Overcast
4:56 PM 39.9 °F - 35.1 °F 83% 30.43 in 9.0 mi Calm Calm - N/A   Overcast
5:56 PM 39.9 °F - 35.1 °F 83% 30.42 in 9.0 mi Calm Calm - N/A   Overcast
6:56 PM 39.9 °F - 35.1 °F 83% 30.41 in 9.0 mi Calm Calm - N/A   Overcast
7:56 PM 39.9 °F - 36.0 °F 86% 30.38 in 10.0 mi Calm Calm - N/A   Overcast
8:56 PM 39.9 °F - 35.1 °F 83% 30.38 in 9.0 mi Calm Calm - N/A   Overcast
9:56 PM 39.9 °F - 35.1 °F 83% 30.36 in 10.0 mi Calm Calm - N/A   Overcast
10:15 PM 39.2 °F - 35.6 °F 87% 30.32 in 9.0 mi Calm Calm - N/A   Overcast
10:56 PM 39.0 °F - 35.1 °F 86% 30.35 in 9.0 mi Calm Calm - N/A   Mostly Cloudy
11:56 PM 39.9 °F - 36.0 °F 86% 30.33 in 10.0 mi Calm Calm - N/A   Overcast